Location: Michelbach Markt
(48.1000°N, 15.7500°E)
Time: 00:29:42
(UTC+01:00)

Tiangong - Visible Passes

Search period start: 29 January 2022 00:00
Search period end: 08 February 2022 00:00
Orbit: 381 x 387 km, 41.5° (Epoch: 28 January)

Date Brightness Start Highest point End Pass type
(mag) Time Alt. Az. Time Alt. Az. Time Alt. Az.
29 Jan 3.4 19:01:56 10° SW 19:03:25 18° SSW 19:03:25 18° SSW visible
30 Jan 3.3 18:02:38 10° SSW 18:04:45 17° SSE 18:06:30 12° SE visible
30 Jan 4.3 19:38:22 10° WSW 19:38:42 12° SW 19:38:42 12° SW visible
31 Jan 2.7 18:38:42 10° SW 18:41:19 23° S 18:41:45 23° SSE visible
01 Feb 3.1 17:39:09 10° SW 17:41:36 20° SSE 17:44:04 10° ESE visible
01 Feb 3.4 19:15:17 10° WSW 19:16:58 20° SSW 19:16:58 20° SSW visible
02 Feb 2.9 18:15:29 10° WSW 18:18:08 24° S 18:19:58 15° SE visible
03 Feb 3.1 18:52:12 10° WSW 18:54:40 21° SSW 18:55:11 20° S visible
04 Feb 3.1 17:52:15 10° WSW 17:54:52 23° S 17:57:28 10° SE visible
04 Feb 4.0 19:29:36 10° SW 19:30:27 12° SW 19:30:27 12° SW visible
05 Feb 3.6 18:29:09 10° WSW 18:31:17 17° SSW 18:33:24 10° SSE visible
07 Feb 4.0 18:06:18 10° SW 18:07:45 12° SSW 18:09:11 10° S visible
